Tracking 17938 objects as of 22-February-2017
HD Live streaming from Space Station
objects crossing your sky now

NAVSTAR 36 (USA 100)

Track NAVSTAR 36 (USA 100) now!
NAVSTAR 36 (USA 100) is classified as:


NORAD ID: 23027
Int'l Code: 1994-016A
Perigee: 19,877.6 km
Apogee: 20,500.9 km
Inclination: 54.7 °
Period: 718.0 minutes
Semi major axis: 26560 km
RCS: 2.0263 m2 (large)
Launch date: March 10, 1994
Source: United States (US)
Launch site: AIR FORCE EASTERN TEST RANGE (AFETR)
PRN:
Your satellite tracking list
Your tracking list is empty





NASA's NSSDC Master Catalog

Two Line Element Set (TLE):
1 23027U 94016A   17052.53550970 -.00000035  00000-0  00000+0 0  9991
2 23027  54.7472  39.8771 0117338  18.2503 110.4108  2.00565088168196
Source of the keplerian elements: AFSPC